GW3793 Weather Reports


Display with metric or nautical units.
time (UTC)temp
F
wind
direction
speed
MPH
gust
MPH
rain 1hr
in
rain 24hr
in
rain mn
in
humidity
%
barometer
mb
20260831115403 50 149 2.0 4.0 0.00 0.20 0.00 97 1016.4
20260831114503 50 156 1.0 4.0 0.00 0.21 0.00 97 1016.0
20260831113603 50 128 1.0 4.0 0.00 0.21 0.00 97 1016.4
20260831112704 50 134 1.0 3.0 0.00 0.21 0.00 97 1016.1
20260831111803 50 155 2.0 4.0 0.00 0.21 0.00 97 1016.4
20260831110903 50 149 1.0 3.0 0.00 0.21 0.00 97 1016.2
20260831110218 50 134 1.0 3.0 0.00 0.21 0.00 97 1016.2
20260831105403 50 133 1.0 4.0 0.00 0.21 0.00 97 1016.6
20260831104503 50 145 1.0 5.0 0.00 0.21 0.00 97 1016.6
20260831103603 50 130 1.0 6.0 0.00 0.21 0.00 97 1016.4
20260831102703 50 121 2.0 6.0 0.00 0.21 0.00 97 1016.1
20260831102017 50 120 2.0 5.0 0.00 0.21 0.00 97 1016.1
20260831101116 50 118 2.0 6.0 0.00 0.21 0.00 97 1016.5
20260831100003 50 127 1.0 4.0 0.00 0.21 0.00 97 1016.4
20260831095403 50 123 1.0 4.0 0.00 0.21 0.00 97 1016.4
20260831094503 50 127 1.0 4.0 0.00 0.21 0.00 97 1016.6
20260831093603 49 145 0.0 3.0 0.00 0.21 0.00 96 1016.5
20260831092917 49 147 0.0 3.0 0.00 0.21 0.00 96 1016.7
20260831091803 49 153 0.0 2.0 0.00 0.21 0.00 96 1016.7
20260831091118 49 167 0.0 1.0 0.00 0.21 0.00 96 1016.5
20260831090003 49 206 0.0 2.0 0.00 0.21 0.00 96 1016.5
20260831085403 50 137 0.0 2.0 0.00 0.21 0.00 96 1016.5
20260831084503 50 115 1.0 4.0 0.00 0.21 0.00 96 1016.7
20260831083603 50 125 1.0 6.0 0.00 0.21 0.00 96 1016.6
20260831082703 51 124 1.0 6.0 0.00 0.21 0.00 96 1016.7
20260831082016 51 121 1.0 6.0 0.00 0.21 0.00 96 1016.9
20260831080903 51 137 0.0 3.0 0.00 0.21 0.00 96 1016.6
20260831080003 51 130 1.0 5.0 0.00 0.21 0.00 96 1016.9
20260831075403 51 159 0.0 3.0 0.00 0.21 0.00 96 1016.9
20260831074503 51 144 1.0 3.0 0.00 0.21 0.00 96 1017.1
20260831073603 51 145 0.0 2.0 0.00 0.21 0.00 96 1017.2
20260831072703 51 161 0.0 3.0 0.00 0.21 0.00 96 1017.1
20260831071803 51 169 1.0 3.0 0.00 0.21 0.00 96 1017.1
20260831070903 51 162 0.0 2.0 0.00 0.21 0.00 96 1016.9
20260831070003 51 152 0.0 2.0 0.00 0.21 0.00 96 1017.1
20260831065403 51 129 0.0 2.0 0.00 0.21 0.21 96 1017.2
20260831064503 51 110 0.0 2.0 0.00 0.21 0.21 96 1017.1
20260831063605 51 134 0.0 2.0 0.00 0.21 0.21 96 1017.5
20260831062919 51 140 0.0 2.0 0.00 0.21 0.21 96 1017.0
20260831061803 51 135 0.0 2.0 0.00 0.21 0.21 96 1017.2
20260831060903 51 113 0.0 2.0 0.00 0.21 0.21 96 1017.2
20260831060003 51 117 0.0 2.0 0.00 0.21 0.21 96 1017.1
20260831055618 51 108 0.0 2.0 0.00 0.21 0.21 96 1017.1
20260831054503 51 0 0.0 0.0 0.00 0.21 0.21 96 1017.4
20260831053603 51 13 0.0 1.0 0.00 0.21 0.21 95 1017.5
20260831052703 51 187 0.0 1.0 0.00 0.21 0.21 95 1017.5
20260831051803 51 145 0.0 3.0 0.00 0.21 0.21 95 1017.5
20260831050903 51 152 1.0 4.0 0.00 0.21 0.21 96 1017.6
20260831050218 51 114 0.0 1.0 0.00 0.21 0.21 95 1017.6
20260831045405 51 93 0.0 2.0 0.00 0.21 0.21 95 1017.6
20260831044503 51 27 0.0 2.0 0.00 0.21 0.21 95 1017.6
20260831043603 52 148 0.0 2.0 0.00 0.21 0.21 95 1017.4
20260831042703 52 0 0.0 0.0 0.00 0.21 0.21 95 1017.5
20260831041803 52 17 0.0 1.0 0.00 0.20 0.20 95 1017.7
20260831040903 52 0 0.0 0.0 0.00 0.20 0.20 95 1017.4
20260831040003 52 25 0.0 1.0 0.00 0.20 0.20 95 1017.7
20260831035617 52 20 0.0 1.0 0.00 0.20 0.20 95 1017.6
20260831034503 52 0 0.0 0.0 0.00 0.20 0.20 95 1017.1
20260831033603 52 0 0.0 0.0 0.00 0.20 0.20 94 1016.9
20260831032705 52 0 0.0 0.0 0.00 0.20 0.20 94 1017.0
20260831031803 52 0 0.0 0.0 0.00 0.20 0.20 94 1016.9
20260831030903 53 0 0.0 0.0 0.00 0.20 0.20 94 1017.1
20260831030003 53 0 0.0 0.0 0.00 0.20 0.20 94 1016.7
20260831025403 53 0 0.0 0.0 0.00 0.20 0.20 94 1016.8
20260831024503 53 15 0.0 1.0 0.00 0.20 0.20 94 1016.7
20260831023603 53 15 0.0 1.0 0.00 0.20 0.20 93 1016.8
20260831022703 53 0 0.0 0.0 0.00 0.20 0.20 93 1016.7
20260831021803 53 0 0.0 0.0 0.00 0.20 0.20 93 1016.7
20260831020903 53 154 0.0 2.0 0.00 0.20 0.20 93 1016.8
20260831020217 53 168 0.0 2.0 0.00 0.20 0.20 93 1016.6
20260831015403 53 175 0.0 2.0 0.00 0.20 0.20 93 1016.7
20260831014503 53 0 0.0 0.0 0.00 0.20 0.20 93 1016.8
20260831013603 54 105 0.0 2.0 0.00 0.20 0.20 93 1016.8
20260831012703 54 168 0.0 2.0 0.00 0.20 0.20 93 1016.8
20260831012018 54 185 0.0 2.0 0.00 0.20 0.20 93 1017.0
20260831011117 54 177 0.0 2.0 0.00 0.20 0.20 94 1017.0
20260831010004 54 167 0.0 2.0 0.00 0.20 0.20 93 1017.0
20260831005403 54 174 0.0 2.0 0.00 0.20 0.20 93 1017.0
20260831004503 54 179 1.0 5.0 0.00 0.20 0.20 94 1016.8
20260831003603 54 184 1.0 2.0 0.00 0.20 0.20 93 1016.9
20260831002703 54 171 1.0 3.0 0.00 0.20 0.20 93 1016.4
20260831001803 54 204 0.0 2.0 0.00 0.20 0.20 93 1016.7
20260831000903 54 207 0.0 2.0 0.00 0.20 0.20 93 1016.8
20260831000218 54 196 0.0 2.0 0.00 0.20 0.20 94 1016.8
20260830235403 54 185 0.0 2.0 0.00 0.20 0.20 94 1016.9
20260830234505 54 276 0.0 1.0 0.00 0.20 0.20 94 1016.7
20260830233603 54 186 0.0 2.0 0.00 0.20 0.20 94 1016.6
20260830232703 54 120 0.0 1.0 0.00 0.20 0.20 94 1016.6
20260830231803 53 160 0.0 2.0 0.00 0.20 0.20 94 1016.7
20260830230903 53 114 0.0 1.0 0.00 0.20 0.20 94 1016.6
20260830230003 53 270 0.0 1.0 0.00 0.20 0.20 94 1016.7
20260830225403 53 174 0.0 1.0 0.00 0.20 0.20 94 1016.7
20260830224503 54 195 0.0 1.0 0.00 0.20 0.20 95 1016.5
20260830223818 54 195 0.0 1.0 0.00 0.20 0.20 94 1016.6
20260830222703 54 181 0.0 3.0 0.00 0.20 0.20 95 1016.7
20260830221803 53 272 0.0 2.0 0.00 0.20 0.20 95 1016.7
20260830220903 53 266 0.0 1.0 0.00 0.20 0.20 94 1016.5
20260830220220 53 260 0.0 2.0 0.00 0.20 0.20 94 1016.8
20260830215403 54 247 0.0 3.0 0.00 0.20 0.20 94 1016.6
20260830214718 54 276 0.0 3.0 0.00 0.20 0.20 94 1016.2
20260830213606 54 218 1.0 4.0 0.00 0.20 0.20 95 1016.6
20260830212703 53 281 0.0 4.0 0.00 0.20 0.20 95 1016.1
20260830211803 53 275 0.0 2.0 0.00 0.20 0.20 95 1016.4
20260830211118 53 211 0.0 1.0 0.00 0.20 0.20 95 1016.6
20260830210003 53 199 0.0 2.0 0.01 0.20 0.20 95 1016.5
20260830205403 53 215 0.0 2.0 0.01 0.20 0.20 95 1016.2
20260830204503 53 208 0.0 2.0 0.01 0.20 0.20 95 1016.0
20260830203603 53 197 0.0 2.0 0.01 0.20 0.20 96 1016.1
20260830202703 53 225 0.0 2.0 0.01 0.20 0.20 95 1016.2
20260830201803 52 197 0.0 3.0 0.01 0.20 0.20 96 1016.2
20260830200903 52 208 0.0 3.0 0.02 0.20 0.20 96 1016.4
20260830200003 52 199 0.0 2.0 0.01 0.20 0.20 96 1016.2
20260830195403 51 186 0.0 2.0 0.01 0.20 0.20 96 1016.4
20260830194503 51 199 0.0 2.0 0.02 0.20 0.20 96 1016.4
20260830193603 51 193 0.0 3.0 0.02 0.19 0.19 96 1016.4
20260830192703 51 177 1.0 6.0 0.02 0.19 0.19 96 1016.1
20260830191806 50 193 1.0 4.0 0.03 0.19 0.19 96 1016.2
20260830190903 50 190 1.0 3.0 0.03 0.19 0.19 95 1016.0
20260830190004 50 203 1.0 3.0 0.04 0.19 0.19 96 1016.4
20260830185403 50 201 1.0 3.0 0.05 0.19 0.19 95 1016.0
20260830184503 49 194 1.0 5.0 0.05 0.18 0.18 95 1016.0
20260830183603 49 200 1.0 3.0 0.06 0.18 0.18 95 1015.9
20260830182703 49 235 1.0 3.0 0.06 0.17 0.17 95 1016.1
20260830181803 49 197 1.0 6.0 0.06 0.17 0.17 95 1016.1
20260830180903 49 175 1.0 3.0 0.06 0.16 0.16 95 1016.1
20260830180003 49 201 1.0 6.0 0.05 0.15 0.15 95 1016.0
20260830175618 49 202 1.0 6.0 0.05 0.14 0.14 95 1016.0
20260830174717 49 173 1.0 5.0 0.04 0.13 0.13 94 1015.9
20260830173603 49 180 1.0 4.0 0.04 0.12 0.12 94 1015.9
20260830172703 48 171 1.0 4.0 0.05 0.11 0.11 94 1016.0
20260830171803 48 174 0.0 2.0 0.05 0.11 0.11 94 1016.0
20260830170903 48 180 1.0 4.0 0.05 0.10 0.10 94 1015.9
20260830170218 48 175 1.0 3.0 0.04 0.09 0.09 94 1015.8
20260830165403 48 180 0.0 4.0 0.04 0.09 0.09 94 1015.8
20260830164503 48 172 0.0 4.0 0.04 0.09 0.09 93 1015.6
20260830163603 48 186 0.0 2.0 0.04 0.08 0.08 93 1015.6
20260830162703 48 170 1.0 3.0 0.03 0.07 0.07 93 1015.7
20260830161803 48 177 1.0 4.0 0.03 0.06 0.06 93 1015.5
20260830160903 48 164 1.0 5.0 0.02 0.06 0.06 93 1015.6
20260830160003 48 199 0.0 2.0 0.03 0.06 0.06 93 1015.7
20260830155617 48 168 0.0 3.0 0.03 0.05 0.05 93 1015.8
20260830154718 48 161 1.0 4.0 0.02 0.05 0.05 93 1015.7
20260830153603 48 167 1.0 3.0 0.02 0.04 0.04 93 1015.6
20260830152703 48 176 1.0 3.0 0.02 0.04 0.04 93 1015.6
20260830151803 48 186 0.0 3.0 0.02 0.04 0.04 93 1015.7
20260830150903 48 158 1.0 3.0 0.02 0.03 0.03 93 1015.5
20260830150003 48 124 1.0 2.0 0.01 0.03 0.03 93 1015.1
20260830145403 48 147 1.0 3.0 0.01 0.02 0.02 93 1015.2
20260830144503 48 134 1.0 4.0 0.01 0.02 0.02 93 1015.1
20260830143603 48 142 1.0 4.0 0.01 0.02 0.02 93 1015.1
20260830142703 48 156 0.0 2.0 0.01 0.02 0.02 93 1015.2
20260830141803 48 202 0.0 1.0 0.01 0.02 0.02 92 1015.1
20260830141117 47 202 0.0 1.0 0.01 0.02 0.02 92 1015.2
20260830140004 47 163 0.0 1.0 0.01 0.02 0.02 92 1015.2
20260830135618 47 144 0.0 1.0 0.01 0.02 0.02 92 1015.1
20260830134504 47 150 0.0 2.0 0.01 0.01 0.01 92 1015.0
20260830133819 47 155 0.0 3.0 0.01 0.01 0.01 92 1014.9
20260830132918 47 150 0.0 2.0 0.01 0.01 0.01 92 1015.0
20260830132017 47 0 0.0 0.0 0.00 0.01 0.01 92 1015.0
20260830130904 47 166 0.0 1.0 0.00 0.01 0.01 92 1014.7
20260830130003 47 5 0.0 2.0 0.00 0.01 0.01 92 1014.9
20260830125618 47 167 0.0 1.0 0.00 0.00 0.00 92 1014.9
20260830124504 47 139 1.0 3.0 0.00 0.00 0.00 92 1015.0
20260830123603 47 75 0.0 2.0 0.00 0.00 0.00 91 1015.1
20260830122703 47 126 0.0 2.0 0.00 0.00 0.00 91 1014.8
20260830121803 47 133 0.0 2.0 0.00 0.00 0.00 91 1014.8
20260830120903 47 0 0.0 0.0 0.00 0.00 0.00 91 1014.8
20260830120003 47 41 0.0 2.0 0.00 0.00 0.00 90 1014.3